Find Starlink 36989

NORAD ID: 68277 Int'l Des: 2026-055 Owner: SPXS Country: US Constellation: starlink operational
LEOCIRCULAR

現在のビュー

3D地球を読み込み中...

About Starlink 36989

Starlink 36989 (NORAD 68277) is a starlink constellation satellite (v2 mini) launched Mar 19, 2026 by SPXS of US. It operates in LEO, CIRCULAR orbit with a mass of 575.00 kg.

Starlink 36989について

説明を読み込み中...

次回通過

Passes for default location (London). Set your location on the main map for personalized predictions.

高度履歴

Loading altitude history...

軌道要素

1 68277U 26055R 26169.39184214 .00015602 00000-0 47181-3 0 9992
2 68277 53.1574 209.7404 0001337 88.7651 271.3504 15.34408344 15376
Epoch: Jun 18, 2026 • Age: 15 hours

現在のステータス

高度 471.2 km
速度 7.63 km/s
衛星直下点 -27.27°S, 136.08°E
打ち上げ日 Mar 19, 2026
運用期間 0.2 years
タイプ internet

技術仕様

分類 Payload
質量 575.00 kg
乾燥質量 530.00 kg
総質量 575.00 kg
長さ 0.30 m
直径 4.10 m
スパン 29.00 m
形状 Box + pan
製造者 SPXS
バスタイプ Starlink V2MO
フェーズステータス In Orbit
所有者/国 SPXS/US

Most Searched